Location: Newark
(46.3833°N, 6.2000°E)
Time: 11:25:09
(UTC+00:00)

N. Korean satellite - Pass Details

Date: 05 March 2020
Orbit: 454 x 507 km, 97.2° (Epoch: 06 April)

Event Time Altitude Azimuth Distance (km) Brightness Sun altitude
Rises 04:15:10 0° 32° (NNE) 2,604 10.9 -19.9°
Reaches altitude 10° 04:18:18 10° 61° (ENE) 1,703 10.4 -19.4°
Maximum altitude 04:20:01 13° 89° (E) 1,523 10.2 -19.1°
Drops below altitude 10° 04:21:42 10° 117° (ESE) 1,682 10.0 -18.8°
Sets 04:24:46 0° 147° (SSE) 2,543 10.5 -18.3°
